Terminal Aerodrome Forecast
Issued by NWS Paducah, KY

Home | Current Version | Previous Version | Text Only | Print | Product List | Glossary On
Versions: 1 2 3 4 5 6 7 8 9 10 11 12
000
FTUS43 KPAH 161100
TAFEVV
TAF
KEVV 161134Z 1612/1712 VRB03KT P6SM SCT250
     FM161400 13010G16KT P6SM SCT250
     FM170000 16005KT P6SM SCT250=

USA.gov is the U.S. government's official web portal to all federal, state and local government web resources and services.